Hourly Data Report for October 31, 2014

All times are specified in Local Standard Time (LST). Add 1 hour to adjust for Daylight Saving Time where and when it is observed.

CAPE DORSET A
NUNAVUT

64°13'49.000" N
76°31'30.000" W
48.20 m
2400637
71366
YTE

Download Data

Hourly Data (October 2014)
Hourly Data Report for October 31, 2014
Temp Definition
°C
Dew Point Temp Definition
°C
Rel Hum Definition
%
Wind Dir Definition
10's deg

Wind Spd Definition
km/h
Visibility Definition
km
Stn Press Definition
kPa
Hmdx Definition


Wind Chill Definition


Weather Definition


TIME
00:00 Legend Double Dagger -6.1 -8.2 85 35 50 4.8 100.11   -16 Snow
01:00 Legend Double Dagger -6.1 -8.4 84 35 55 8.1 100.10   -17 Snow
02:00 Legend Double Dagger -5.9 -8.0 85 34 39 16.1 100.14   -15 LegendNANA
03:00 Legend Double Dagger -5.6 -7.9 84 33 34 16.1 100.15   -14 LegendNANA
04:00 Legend Double Dagger -5.3 -7.4 85 30 34 16.1 100.17   -14 LegendNANA
05:00 Legend Double Dagger -5.5 -7.5 86 29 32 16.1 100.18   -14 LegendNANA
06:00 Legend Double Dagger -4.7 -6.9 85 31 30 16.1 100.16   -13 Snow
07:00 Legend Double Dagger -4.7 -6.6 86 30 30 16.1 100.17   -13 LegendNANA
08:00 Legend Double Dagger -4.5 -6.3 87 31 28 16.1 100.18   -12 LegendNANA
09:00 Legend Double Dagger -4.3 -6.2 87 31 35 16.1 100.17   -13 Snow
10:00 Legend Double Dagger -3.9 -6.0 86 32 39 16.1 100.16   -13 LegendNANA
11:00 Legend Double Dagger -3.6 -5.5 87 33 35 16.1 100.13   -12 LegendNANA
12:00 Legend Double Dagger -3.0 -5.0 86 33 34 16.1 100.14   -11 LegendNANA
13:00 Legend Double Dagger -2.6 -4.6 86 33 34 16.1 100.17   -10 LegendNANA
14:00 Legend Double Dagger -2.1 -4.0 87 33 26 16.1 100.19   -9 LegendNANA
15:00 Legend Double Dagger -2.3 -4.3 86 32 32 16.1 100.22   -10 LegendNANA
16:00 Legend Double Dagger -2.3 -4.3 86 32 30 16.1 100.25   -9 LegendNANA
17:00 Legend Double Dagger -2.2 -4.1 87 32 28 16.1 100.27   -9 LegendNANA
18:00 Legend Double Dagger -2.2 -4.1 87 30 30 16.1 100.30   -9 Snow
19:00 Legend Double Dagger -1.8 -3.5 88 34 18 16.1 100.37   -7 LegendNANA
20:00 Legend Double Dagger -1.8 -3.5 88 36 26 16.1 100.37   -8 Snow
21:00 Legend Double Dagger -1.6 -3.3 88 36 32 16.1 100.39   -9 LegendNANA
22:00 Legend Double Dagger -1.6 -3.2 89 35 35 16.1 100.42   -9 LegendNANA
23:00 Legend Double Dagger -1.4 -3.0 89 36 26 16.1 100.44   -8 LegendNANA

Notes on Data Quality.

Legend

  • E = Estimated
  • M = Missing
  • NA = Not Available
  • ‡ = Partner data that is not subject to review by the National Climate Archives
Date modified: